OBJECT A, 60203

Orbit data source: Space-Track

You're viewing an Uncataloged Satellite

Recently launched and/or uncataloged satellites may have evolving metadata. Metadata may include but not limited to: Owner, Maufacturer, Bus, Motor, and Mission.

OBJECT A, 60203 is a satellite owned by UWash (US) in SSO that was launched on Thu, 04 Jul 2024 UTC via an FIREFLY ALPHA launch vehicle from the Air Force Western Test Range (AFWTR). Unknown objects in Earth's orbit typically refer to objects detected orbiting the Earth but have not yet been identified or cataloged. These objects could be anything from previously untracked satellites, spent rocket stages, debris from satellite collisions, or even natural meteoroids temporarily captured by Earth's gravity.

Loading next visibility...
Identifier
60203, 2024-125A
Orbit
SSO
Country
Flag of USUS
Related business
None
Manufacturer
UWash
Mission
Operational spacecraft
Bus & Motor
CUBESAT 2U, Unknown motor
Mass
2 kg wet, 2 kg dry
Launch date (UTC)
2024-07-04 (1 year ago)
Launch vehicle
FIREFLY ALPHA
Launch site
Air Force Western Test Range (AFWTR)
Object type
Unknown
Shape & HBR
Unknown
Radar Cross Section
Small (<0.1 m²)

Expand to show TLE details & history
Last TLE update: 11 hours ago

TLE from 11 hours ago
0 OBJECT A
1 60203U 24125A   25258.51809431  .00030573  00000-0  74891-3 0  9998
2 60203  97.2676 109.4910 0018750 137.8074 222.4620 15.40513899 67023
Epoch: 2025-09-15T12:26Z
TLE epoch observation values (Epoch: 2025-09-15T12:26:03.348Z)
Latitude
0.00002°
Longitude
-71.74455°
Altitude
457.164 km
Speed
7.633 km/s
True Right ascension
07h 17m 57s
True Declination
0° 00' 00"
Sunlit
Object was in daylight at epoch
Visualization orbit readout
Latitude
Unknown
Longitude
Unknown
Altitude
Unknown
Speed
Unknown
Apparent Right ascension
Unknown
Apparent Declination
Unknown
Sunlit
N/A
Visualization observer readout
Local Sidereal Time
15:49:53
Azimuth
Unknown
Elevation
Unknown
Doppler factor
Unknown
Orbital elements
Apogee altitude
454.311 km
Perigee altitude
428.737 km
Semi-major axis
6,819.661 km
Eccentricity
0.00188
Inclination
97.2676°
RAAN
109.491°
Arg. of periapsis
137.8074°
True anomaly
222.3172°
Mean anomaly
222.462°
Eccentric anomaly
222.38957°
Mean motion
3.85389 °/min
Orbital period
93.41 mins
BSTAR
0.00074891
Loading maneuver chart data...
Computing Atmospheric mass density...
Loading historical data...
Loading historical data...
Loading historical data...
Loading historical data...
Loading historical data...
Loading historical data...
Loading historical data...

Documentation

Showing up to 5 results
|